南山-ハーン彗星

P/2024 FG9 ( Nanshan-Hahn )

English version
Home page
Updated on June 9, 2024

---------------------------------------------------------------------

・ プロフィール

発見日 2024年3月8日、4月10日
発見光度 19.7等、18.7等
発見者 Xio Liao (Xingming Sky Survey, Mt. Nanshan station, Xinjiang Astronomical Observatory), Robson Henrique dos Santos Hahn (Moeckmuehl, Germany)

・ 軌道要素

Epoch 2024 May 10.0 TT = JDT 2460440.5                                          
T 2024 May 20.33999 TT                                  Rudenko                 
q   1.5963737            (2000.0)            P               Q                  
n   0.16774574     Peri.  245.90699     -0.75375681     -0.65651784             
a   3.2561299      Node   253.04463     +0.61336521     -0.68706842             
e   0.5097328      Incl.    1.73115     +0.23586818     -0.31132189             
P   5.88                                                                        
>From 98 observations 2018 Mar. 29-2024 May 26, mean residual 0".6.              

・ 星図

・ 光度変化

        m1 = -5.0 + 5 logΔ + 50 log r(t - 200)  [  ,15]  (              〜2024年 6月 4日)
        m1 =  9.0 + 5 logΔ + 20 log r           [15,  ]  (2024年 6月 4日〜              )

---------------------------------------------------------------------

軌道要素はM.P.E.C. 2024-L04に掲載されたものです。
星図はステラナビゲータ Ver.11 (アストロアーツ) で作成したものです。
光度グラフはComet for Windowsで作成したものです。

---------------------------------------------------------------------

Copyright(C) Seiichi Yoshida (comet@aerith.net). All rights reserved.